Time,TemperatureF,DewpointF,PressureIn,WindDirection,WindDirectionDegrees,WindSpeedMPH,WindSpeedGustMPH,Humidity,HourlyPrecipIn,Conditions,Clouds,dailyrainin,SolarRadiationWatts/m^2,SoftwareType,DateUTC
2017-08-21 00:00:00,71.6,68.8,30.05,North,0,0.0,0.0,91,0.00,,---,0.00,0.00,VWS V15.00,2017-08-21 04:00:00,
2017-08-21 00:05:00,71.7,68.6,30.05,North,0,0.0,0.0,90,0.00,,---,0.00,0.00,VWS V15.00,2017-08-21 04:05:00,
2017-08-21 00:10:00,71.7,68.6,30.06,North,0,0.0,0.0,90,0.00,,---,0.00,0.00,VWS V15.00,2017-08-21 04:10:00,
2017-08-21 00:15:00,71.8,68.7,30.06,North,0,0.0,0.0,90,0.00,,---,0.00,0.00,VWS V15.00,2017-08-21 04:15:00,
2017-08-21 00:20:00,71.7,68.6,30.06,North,0,0.0,0.0,90,0.00,,---,0.00,0.00,VWS V15.00,2017-08-21 04:20:00,
2017-08-21 00:25:00,71.7,68.9,30.06,North,0,0.0,0.0,91,0.00,,---,0.00,0.00,VWS V15.00,2017-08-21 04:25:00,
2017-08-21 00:30:00,71.6,68.8,30.06,North,0,0.0,0.0,91,0.00,,---,0.00,0.00,VWS V15.00,2017-08-21 04:30:00,
2017-08-21 00:35:00,71.5,68.7,30.06,North,0,0.0,0.0,91,0.00,,---,0.00,0.00,VWS V15.00,2017-08-21 04:35:00,
2017-08-21 00:40:00,71.4,68.6,30.06,North,0,0.0,0.0,91,0.00,,---,0.00,0.00,VWS V15.00,2017-08-21 04:40:00,
2017-08-21 00:45:00,71.3,68.5,30.06,North,0,0.0,0.0,91,0.00,,---,0.00,0.00,VWS V15.00,2017-08-21 04:45:00,
2017-08-21 00:50:00,71.2,68.4,30.06,North,0,0.0,0.0,91,0.00,,---,0.00,0.00,VWS V15.00,2017-08-21 04:50:00,
2017-08-21 00:55:00,71.0,68.2,30.06,North,0,0.0,0.0,91,0.00,,---,0.00,0.00,VWS V15.00,2017-08-21 04:55:00,
2017-08-21 01:00:00,70.9,68.2,30.06,North,0,0.0,0.0,91,0.00,,---,0.00,0.00,VWS V15.00,2017-08-21 05:00:00,
2017-08-21 01:05:00,70.8,68.1,30.06,North,0,0.0,0.0,91,0.00,,---,0.00,0.00,VWS V15.00,2017-08-21 05:05:00,
2017-08-21 01:10:00,70.7,68.3,30.06,North,0,0.0,0.0,92,0.00,,---,0.00,0.00,VWS V15.00,2017-08-21 05:10:00,
2017-08-21 01:15:00,70.6,68.2,30.06,North,0,0.0,0.0,92,0.00,,---,0.00,0.00,VWS V15.00,2017-08-21 05:15:00,
2017-08-21 01:20:00,70.5,68.1,30.06,North,0,0.0,0.0,92,0.00,,---,0.00,0.00,VWS V15.00,2017-08-21 05:20:00,
2017-08-21 01:25:00,70.4,68.0,30.06,North,0,0.0,0.0,92,0.00,,---,0.00,0.00,VWS V15.00,2017-08-21 05:25:00,
2017-08-21 01:30:00,70.3,67.9,30.06,North,0,0.0,0.0,92,0.00,,---,0.00,0.00,VWS V15.00,2017-08-21 05:30:00,
2017-08-21 01:35:00,70.1,68.0,30.06,North,0,0.0,0.0,93,0.00,,---,0.00,0.00,VWS V15.00,2017-08-21 05:35:00,
2017-08-21 01:40:00,70.1,68.0,30.06,North,0,0.0,0.0,93,0.00,,---,0.00,0.00,VWS V15.00,2017-08-21 05:40:00,
2017-08-21 01:45:00,70.1,68.0,30.06,North,0,0.0,0.0,93,0.00,,---,0.00,0.00,VWS V15.00,2017-08-21 05:45:00,
2017-08-21 01:50:00,70.1,68.0,30.07,North,0,0.0,0.0,93,0.00,,---,0.00,0.00,VWS V15.00,2017-08-21 05:50:00,
2017-08-21 01:55:00,70.1,68.3,30.07,North,0,0.0,0.0,94,0.00,,---,0.00,0.00,VWS V15.00,2017-08-21 05:55:00,
2017-08-21 02:00:00,70.2,68.4,30.07,North,0,0.0,0.0,94,0.00,,---,0.00,0.00,VWS V15.00,2017-08-21 06:00:00,
2017-08-21 02:05:00,70.3,68.5,30.07,North,0,0.0,0.0,94,0.00,,---,0.00,0.00,VWS V15.00,2017-08-21 06:05:00,
2017-08-21 02:10:00,70.3,68.5,30.07,North,0,0.0,0.0,94,0.00,,---,0.00,0.00,VWS V15.00,2017-08-21 06:10:00,
2017-08-21 02:15:00,70.3,68.5,30.06,North,0,0.0,0.0,94,0.00,,---,0.00,0.00,VWS V15.00,2017-08-21 06:15:00,
2017-08-21 02:20:00,70.4,68.6,30.07,North,0,0.0,0.0,94,0.00,,---,0.00,0.00,VWS V15.00,2017-08-21 06:20:00,
2017-08-21 02:25:00,70.4,68.6,30.07,North,0,0.0,0.0,94,0.00,,---,0.00,0.00,VWS V15.00,2017-08-21 06:25:00,
2017-08-21 02:30:00,70.4,68.6,30.07,North,0,0.0,0.0,94,0.00,,---,0.00,0.00,VWS V15.00,2017-08-21 06:30:00,
2017-08-21 02:35:00,70.5,68.7,30.06,North,0,0.0,0.0,94,0.00,,---,0.00,0.00,VWS V15.00,2017-08-21 06:35:00,
2017-08-21 02:40:00,70.5,68.7,30.07,North,0,0.0,0.0,94,0.00,,---,0.00,0.00,VWS V15.00,2017-08-21 06:40:00,
2017-08-21 02:45:00,70.6,69.1,30.07,North,0,0.0,0.0,95,0.00,,---,0.00,0.00,VWS V15.00,2017-08-21 06:45:00,
2017-08-21 02:50:00,70.7,69.2,30.07,North,0,0.0,0.0,95,0.00,,---,0.00,0.00,VWS V15.00,2017-08-21 06:50:00,
2017-08-21 02:55:00,70.8,69.0,30.06,North,0,0.0,0.0,94,0.00,,---,0.00,0.00,VWS V15.00,2017-08-21 06:55:00,
2017-08-21 03:00:00,70.7,68.9,30.07,North,0,0.0,0.0,94,0.00,,---,0.00,0.00,VWS V15.00,2017-08-21 07:00:00,
2017-08-21 03:05:00,70.7,68.9,30.07,North,0,0.0,0.0,94,0.00,,---,0.00,0.00,VWS V15.00,2017-08-21 07:05:00,
2017-08-21 03:10:00,70.7,68.9,30.07,North,0,0.0,0.0,94,0.00,,---,0.00,0.00,VWS V15.00,2017-08-21 07:10:00,
2017-08-21 03:15:00,70.8,69.3,30.07,North,0,0.0,0.0,95,0.00,,---,0.00,0.00,VWS V15.00,2017-08-21 07:15:00,
2017-08-21 03:20:00,70.8,69.3,30.07,North,0,0.0,0.0,95,0.00,,---,0.00,0.00,VWS V15.00,2017-08-21 07:20:00,
2017-08-21 03:25:00,70.9,69.1,30.06,North,0,0.0,0.0,94,0.00,,---,0.00,0.00,VWS V15.00,2017-08-21 07:25:00,
2017-08-21 03:30:00,70.9,69.1,30.06,North,0,0.0,0.0,94,0.00,,---,0.00,0.00,VWS V15.00,2017-08-21 07:30:00,
2017-08-21 03:35:00,70.9,69.1,30.06,North,0,0.0,0.0,94,0.00,,---,0.00,0.00,VWS V15.00,2017-08-21 07:35:00,
2017-08-21 03:40:00,70.8,69.0,30.07,North,0,0.0,0.0,94,0.00,,---,0.00,0.00,VWS V15.00,2017-08-21 07:40:00,
2017-08-21 03:45:00,70.7,68.9,30.07,North,0,0.0,0.0,94,0.00,,---,0.00,0.00,VWS V15.00,2017-08-21 07:45:00,
2017-08-21 03:50:00,70.6,68.8,30.07,North,0,0.0,0.0,94,0.00,,---,0.00,0.00,VWS V15.00,2017-08-21 07:50:00,
2017-08-21 03:55:00,70.6,68.8,30.06,North,0,0.0,0.0,94,0.00,,---,0.00,0.00,VWS V15.00,2017-08-21 07:55:00,
2017-08-21 04:00:00,70.5,68.7,30.06,North,0,0.0,0.0,94,0.00,,---,0.00,0.00,VWS V15.00,2017-08-21 08:00:00,
2017-08-21 04:05:00,70.4,68.6,30.06,North,0,0.0,0.0,94,0.00,,---,0.00,0.00,VWS V15.00,2017-08-21 08:05:00,
2017-08-21 04:10:00,70.4,68.6,30.06,North,0,0.0,0.0,94,0.00,,---,0.00,0.00,VWS V15.00,2017-08-21 08:10:00,
2017-08-21 04:15:00,70.4,68.6,30.06,North,0,0.0,0.0,94,0.00,,---,0.00,0.00,VWS V15.00,2017-08-21 08:15:00,
2017-08-21 04:20:00,70.3,68.5,30.06,North,0,0.0,0.0,94,0.00,,---,0.00,0.00,VWS V15.00,2017-08-21 08:20:00,
2017-08-21 04:25:00,70.3,68.5,30.06,North,0,0.0,0.0,94,0.00,,---,0.00,0.00,VWS V15.00,2017-08-21 08:25:00,
2017-08-21 04:30:00,70.2,68.4,30.06,North,0,0.0,0.0,94,0.00,,---,0.00,0.00,VWS V15.00,2017-08-21 08:30:00,
2017-08-21 04:35:00,70.1,68.3,30.06,North,0,0.0,0.0,94,0.00,,---,0.00,0.00,VWS V15.00,2017-08-21 08:35:00,
2017-08-21 04:40:00,70.0,68.2,30.06,North,0,0.0,0.0,94,0.00,,---,0.00,0.00,VWS V15.00,2017-08-21 08:40:00,
2017-08-21 04:45:00,69.9,68.1,30.06,North,0,0.0,0.0,94,0.00,,---,0.00,0.00,VWS V15.00,2017-08-21 08:45:00,
2017-08-21 04:50:00,69.9,68.1,30.06,North,0,0.0,0.0,94,0.00,,---,0.00,0.00,VWS V15.00,2017-08-21 08:50:00,
2017-08-21 04:55:00,69.8,68.0,30.06,North,0,0.0,0.0,94,0.00,,---,0.00,0.00,VWS V15.00,2017-08-21 08:55:00,
2017-08-21 05:00:00,69.7,67.9,30.06,North,0,0.0,0.0,94,0.00,,---,0.00,0.00,VWS V15.00,2017-08-21 09:00:00,
2017-08-21 05:05:00,69.6,67.8,30.06,North,0,0.0,0.0,94,0.00,,---,0.00,0.00,VWS V15.00,2017-08-21 09:05:00,
2017-08-21 05:10:00,69.6,67.8,30.07,North,0,0.0,0.0,94,0.00,,---,0.00,0.00,VWS V15.00,2017-08-21 09:10:00,
2017-08-21 05:15:00,69.6,67.8,30.07,North,0,0.0,0.0,94,0.00,,---,0.00,0.00,VWS V15.00,2017-08-21 09:15:00,
2017-08-21 05:20:00,69.6,67.8,30.06,North,0,0.0,0.0,94,0.00,,---,0.00,0.00,VWS V15.00,2017-08-21 09:20:00,
2017-08-21 05:25:00,69.6,67.8,30.06,North,0,0.0,0.0,94,0.00,,---,0.00,0.00,VWS V15.00,2017-08-21 09:25:00,
2017-08-21 05:30:00,69.5,67.7,30.06,North,0,0.0,0.0,94,0.00,,---,0.00,0.00,VWS V15.00,2017-08-21 09:30:00,
2017-08-21 05:35:00,69.3,67.5,30.07,North,0,0.0,0.0,94,0.00,,---,0.00,0.00,VWS V15.00,2017-08-21 09:35:00,
2017-08-21 05:40:00,69.2,67.4,30.06,North,0,0.0,0.0,94,0.00,,---,0.00,0.00,VWS V15.00,2017-08-21 09:40:00,
2017-08-21 05:45:00,69.1,67.3,30.06,North,0,0.0,0.0,94,0.00,,---,0.00,0.00,VWS V15.00,2017-08-21 09:45:00,
2017-08-21 05:50:00,69.0,67.5,30.06,North,0,0.0,0.0,95,0.00,,---,0.00,0.00,VWS V15.00,2017-08-21 09:50:00,
2017-08-21 05:55:00,69.0,67.5,30.06,North,0,0.0,0.0,95,0.00,,---,0.00,0.00,VWS V15.00,2017-08-21 09:55:00,
2017-08-21 06:00:00,68.8,67.0,30.06,North,0,0.0,0.0,94,0.00,,---,0.00,0.00,VWS V15.00,2017-08-21 10:00:00,
2017-08-21 06:05:00,68.5,67.0,30.06,North,0,0.0,0.0,95,0.00,,---,0.00,0.00,VWS V15.00,2017-08-21 10:05:00,
2017-08-21 06:10:00,68.4,66.9,30.07,North,0,0.0,0.0,95,0.00,,---,0.00,0.00,VWS V15.00,2017-08-21 10:10:00,
2017-08-21 06:15:00,68.4,66.9,30.07,North,0,0.0,0.0,95,0.00,,---,0.00,0.00,VWS V15.00,2017-08-21 10:15:00,
2017-08-21 06:20:00,68.4,66.9,30.07,North,0,0.0,0.0,95,0.00,,---,0.00,0.00,VWS V15.00,2017-08-21 10:20:00,
2017-08-21 06:25:00,68.4,66.9,30.07,North,0,0.0,0.0,95,0.00,,---,0.00,0.00,VWS V15.00,2017-08-21 10:25:00,
2017-08-21 06:30:00,68.3,66.8,30.08,North,0,0.0,0.0,95,0.00,,---,0.00,0.00,VWS V15.00,2017-08-21 10:30:00,
2017-08-21 06:35:00,68.3,67.1,30.08,North,0,0.0,0.0,96,0.00,,---,0.00,0.00,VWS V15.00,2017-08-21 10:35:00,
2017-08-21 06:40:00,68.3,67.1,30.08,North,0,0.0,0.0,96,0.00,,---,0.00,0.00,VWS V15.00,2017-08-21 10:40:00,
2017-08-21 06:45:00,68.4,67.2,30.08,North,0,0.0,0.0,96,0.00,,---,0.00,0.00,VWS V15.00,2017-08-21 10:45:00,
2017-08-21 06:50:00,68.4,67.2,30.08,North,0,0.0,0.0,96,0.00,,---,0.00,5.00,VWS V15.00,2017-08-21 10:50:00,
2017-08-21 06:55:00,68.4,67.2,30.08,North,0,0.0,0.0,96,0.00,,---,0.00,8.00,VWS V15.00,2017-08-21 10:55:00,
2017-08-21 07:00:00,68.4,67.2,30.08,North,0,0.0,0.0,96,0.00,,---,0.00,10.00,VWS V15.00,2017-08-21 11:00:00,
2017-08-21 07:05:00,68.4,67.2,30.08,North,0,0.0,0.0,96,0.00,,---,0.00,11.00,VWS V15.00,2017-08-21 11:05:00,
2017-08-21 07:10:00,68.4,67.2,30.09,North,0,0.0,0.0,96,0.00,,---,0.00,17.00,VWS V15.00,2017-08-21 11:10:00,
2017-08-21 07:15:00,68.4,67.2,30.09,North,0,0.0,0.0,96,0.00,,---,0.00,28.00,VWS V15.00,2017-08-21 11:15:00,
2017-08-21 07:20:00,68.5,67.3,30.09,North,0,0.0,0.0,96,0.00,,---,0.00,40.00,VWS V15.00,2017-08-21 11:20:00,
2017-08-21 07:25:00,68.6,67.4,30.09,North,0,0.0,0.0,96,0.00,,---,0.00,53.00,VWS V15.00,2017-08-21 11:25:00,
2017-08-21 07:40:00,69.2,68.0,30.10,North,0,0.0,0.0,96,0.00,,---,0.00,54.00,VWS V15.00,2017-08-21 11:40:00,
2017-08-21 07:45:00,69.4,68.2,30.10,North,0,0.0,0.0,96,0.00,,---,0.00,44.00,VWS V15.00,2017-08-21 11:45:00,
2017-08-21 07:50:00,69.6,68.4,30.10,North,0,0.0,0.0,96,0.00,,---,0.00,54.00,VWS V15.00,2017-08-21 11:50:00,
2017-08-21 07:55:00,69.7,68.5,30.10,North,0,0.0,0.0,96,0.00,,---,0.00,51.00,VWS V15.00,2017-08-21 11:55:00,
2017-08-21 08:00:00,69.9,68.7,30.10,North,0,0.0,0.0,96,0.00,,---,0.00,57.00,VWS V15.00,2017-08-21 12:00:00,
2017-08-21 08:05:00,70.1,68.9,30.10,North,0,0.0,0.0,96,0.00,,---,0.00,67.00,VWS V15.00,2017-08-21 12:05:00,
2017-08-21 08:10:00,70.2,69.0,30.10,North,0,0.0,0.0,96,0.00,,---,0.00,72.00,VWS V15.00,2017-08-21 12:10:00,
2017-08-21 08:15:00,70.4,68.9,30.10,North,0,0.0,0.0,95,0.00,,---,0.00,76.00,VWS V15.00,2017-08-21 12:15:00,
2017-08-21 08:20:00,70.5,69.0,30.10,North,0,0.0,0.0,95,0.00,,---,0.00,79.00,VWS V15.00,2017-08-21 12:20:00,
2017-08-21 08:25:00,70.7,69.2,30.10,North,0,0.0,0.0,95,0.00,,---,0.00,86.00,VWS V15.00,2017-08-21 12:25:00,
2017-08-21 08:30:00,70.9,69.4,30.10,North,0,0.0,0.0,95,0.00,,---,0.00,103.00,VWS V15.00,2017-08-21 12:30:00,
2017-08-21 08:35:00,71.1,69.3,30.10,North,0,0.0,0.0,94,0.00,,---,0.00,137.00,VWS V15.00,2017-08-21 12:35:00,
2017-08-21 08:40:00,71.3,69.5,30.10,North,0,0.0,0.0,94,0.00,,---,0.00,144.00,VWS V15.00,2017-08-21 12:40:00,
2017-08-21 08:45:00,71.8,69.7,30.10,North,0,0.0,0.0,93,0.00,,---,0.00,140.00,VWS V15.00,2017-08-21 12:45:00,
2017-08-21 08:50:00,72.1,70.0,30.09,North,0,0.0,0.0,93,0.00,,---,0.00,140.00,VWS V15.00,2017-08-21 12:50:00,
2017-08-21 08:55:00,72.5,69.7,30.09,North,0,0.0,0.0,91,0.00,,---,0.00,167.00,VWS V15.00,2017-08-21 12:55:00,
2017-08-21 09:00:00,72.9,69.8,30.09,North,0,0.0,0.0,90,0.00,,---,0.00,213.00,VWS V15.00,2017-08-21 13:00:00,
2017-08-21 09:05:00,73.5,70.1,30.08,North,0,0.0,0.0,89,0.00,,---,0.00,178.00,VWS V15.00,2017-08-21 13:05:00,
2017-08-21 09:10:00,74.1,70.3,30.08,North,0,0.0,0.0,88,0.00,,---,0.00,131.00,VWS V15.00,2017-08-21 13:10:00,
2017-08-21 09:15:00,74.5,70.4,30.08,North,0,0.0,0.0,87,0.00,,---,0.00,188.00,VWS V15.00,2017-08-21 13:15:00,
2017-08-21 09:20:00,74.9,70.4,30.08,North,0,0.0,0.0,86,0.00,,---,0.00,203.00,VWS V15.00,2017-08-21 13:20:00,
2017-08-21 09:25:00,75.3,70.8,30.08,North,0,0.0,0.0,86,0.00,,---,0.00,236.00,VWS V15.00,2017-08-21 13:25:00,
2017-08-21 09:30:00,75.7,70.9,30.08,North,0,0.0,0.0,85,0.00,,---,0.00,199.00,VWS V15.00,2017-08-21 13:30:00,
2017-08-21 09:35:00,75.9,70.4,30.08,North,0,0.0,0.0,83,0.00,,---,0.00,186.00,VWS V15.00,2017-08-21 13:35:00,
2017-08-21 09:40:00,76.1,70.9,30.08,North,0,0.0,0.0,84,0.00,,---,0.00,179.00,VWS V15.00,2017-08-21 13:40:00,
2017-08-21 09:45:00,76.5,71.3,30.08,North,0,0.0,0.0,84,0.00,,---,0.00,207.00,VWS V15.00,2017-08-21 13:45:00,
2017-08-21 09:50:00,76.7,71.5,30.08,North,0,0.0,0.0,84,0.00,,---,0.00,234.00,VWS V15.00,2017-08-21 13:50:00,
2017-08-21 09:55:00,76.9,70.6,30.08,North,0,0.0,0.0,81,0.00,,---,0.00,234.00,VWS V15.00,2017-08-21 13:55:00,
2017-08-21 10:00:00,77.0,70.7,30.07,North,0,0.0,0.0,81,0.00,,---,0.00,247.00,VWS V15.00,2017-08-21 14:00:00,
2017-08-21 10:05:00,77.2,71.3,30.07,North,0,0.0,0.0,82,0.00,,---,0.00,235.00,VWS V15.00,2017-08-21 14:05:00,
2017-08-21 10:21:00,77.2,71.3,30.07,North,0,0.0,0.0,82,0.00,,---,0.00,235.00,VWS V15.00,2017-08-21 14:21:00,
2017-08-21 10:26:00,77.8,71.5,30.08,South,180,0.0,0.0,81,0.00,,---,0.00,221.00,VWS V15.00,2017-08-21 14:26:00,
2017-08-21 10:31:00,78.2,71.9,30.07,South,180,0.0,0.0,81,0.00,,---,0.00,272.00,VWS V15.00,2017-08-21 14:31:00,
2017-08-21 10:36:00,78.5,72.2,30.08,South,180,0.0,0.0,81,0.00,,---,0.00,285.00,VWS V15.00,2017-08-21 14:36:00,
2017-08-21 10:41:00,78.8,72.1,30.08,South,180,0.0,0.0,80,0.00,,---,0.00,652.00,VWS V15.00,2017-08-21 14:41:00,
2017-08-21 10:46:00,79.2,71.8,30.08,SSE,148,0.0,0.0,78,0.00,,---,0.00,248.00,VWS V15.00,2017-08-21 14:46:00,
2017-08-21 10:51:00,79.4,71.9,30.07,SSE,147,0.0,0.0,78,0.00,,---,0.00,281.00,VWS V15.00,2017-08-21 14:51:00,
2017-08-21 10:56:00,79.6,72.1,30.08,SE,138,0.0,0.0,78,0.00,,---,0.00,304.00,VWS V15.00,2017-08-21 14:56:00,
2017-08-21 11:01:00,79.9,72.4,30.08,SSW,192,0.0,0.0,78,0.00,,---,0.00,278.00,VWS V15.00,2017-08-21 15:01:00,
2017-08-21 11:06:00,80.1,72.2,30.08,SSE,163,0.0,0.0,77,0.00,,---,0.00,325.00,VWS V15.00,2017-08-21 15:06:00,
2017-08-21 11:11:00,80.6,72.7,30.07,SE,142,0.0,0.0,77,0.00,,---,0.00,698.00,VWS V15.00,2017-08-21 15:11:00,
2017-08-21 11:16:00,81.4,72.7,30.07,SSE,152,0.0,0.0,75,0.00,,---,0.00,652.00,VWS V15.00,2017-08-21 15:16:00,
2017-08-21 11:21:00,82.1,73.0,30.07,SE,140,0.0,0.0,74,0.00,,---,0.00,663.00,VWS V15.00,2017-08-21 15:21:00,
2017-08-21 11:26:00,82.5,72.6,30.07,SE,142,0.0,0.0,72,0.00,,---,0.00,693.00,VWS V15.00,2017-08-21 15:26:00,
2017-08-21 11:31:00,83.0,72.6,30.07,SE,145,0.0,0.0,71,0.00,,---,0.00,810.00,VWS V15.00,2017-08-21 15:31:00,
2017-08-21 11:36:00,83.3,72.1,30.07,SE,138,0.0,0.0,69,0.00,,---,0.00,733.00,VWS V15.00,2017-08-21 15:36:00,
2017-08-21 11:41:00,83.6,72.4,30.07,SSE,148,0.0,0.0,69,0.00,,---,0.00,705.00,VWS V15.00,2017-08-21 15:41:00,
2017-08-21 11:46:00,83.9,72.7,30.07,SE,140,0.0,0.0,69,0.00,,---,0.00,693.00,VWS V15.00,2017-08-21 15:46:00,
2017-08-21 11:51:00,84.1,71.5,30.07,SSE,155,0.0,0.0,66,0.00,,---,0.00,700.00,VWS V15.00,2017-08-21 15:51:00,
2017-08-21 11:56:00,84.5,73.2,30.07,South,186,3.0,3.0,69,0.00,,---,0.00,705.00,VWS V15.00,2017-08-21 15:56:00,
2017-08-21 12:01:00,84.2,71.2,30.07,SSW,201,4.0,5.0,65,0.00,,---,0.00,729.00,VWS V15.00,2017-08-21 16:01:00,
2017-08-21 12:06:00,84.5,72.3,30.07,SSE,152,0.0,1.0,67,0.00,,---,0.00,733.00,VWS V15.00,2017-08-21 16:06:00,
2017-08-21 12:11:00,84.7,71.6,30.07,SSW,192,0.0,4.0,65,0.00,,---,0.00,394.00,VWS V15.00,2017-08-21 16:11:00,